ProjectID,Date,Electric Generation,Electric Utility Import,Facility Electric Load
,YYYY-MM-DD,kW,kW,kW
247,2015-03-01,0.0,,0.0
247,2015-03-02,0.0,,0.0
247,2015-03-03,0.0,,0.0
247,2015-03-04,0.0,,0.0
247,2015-03-05,0.0,,0.0
247,2015-03-06,0.0,,0.0
247,2015-03-07,0.0,,0.0
247,2015-03-08,0.0,,0.0
247,2015-03-09,0.0,,0.0
247,2015-03-10,0.0,,0.0
247,2015-03-11,0.0,,0.0
247,2015-03-12,0.0,,0.0
247,2015-03-13,0.0,,0.0
247,2015-03-14,0.0,,0.0
247,2015-03-15,0.0,,0.0
247,2015-03-16,0.0,,0.0
247,2015-03-17,0.0,,0.0
247,2015-03-18,0.0,,0.0
247,2015-03-19,0.0,,0.0
247,2015-03-20,0.0,,0.0
247,2015-03-21,0.0,,0.0
247,2015-03-22,0.0,,0.0
247,2015-03-23,0.0,,0.0
247,2015-03-24,0.0,,0.0
247,2015-03-25,0.0,,0.0
247,2015-03-26,0.0,,0.0
247,2015-03-27,0.0,,0.0
247,2015-03-28,0.0,,0.0
247,2015-03-29,0.0,,0.0
247,2015-03-30,64.41166666666668,,64.41166666666668
247,2015-03-31,205.1945416666667,,205.1945416666667
247,2015-04-01,693.1879166666666,,693.1879166666666
247,2015-04-02,453.3845416666666,,453.3845416666666
247,2015-04-03,412.3083749999999,,412.3083749999999
247,2015-04-04,281.4900833333333,,281.4900833333333
247,2015-04-05,13.68166666666667,,13.68166666666667
247,2015-04-06,403.38708333333335,,403.38708333333335
247,2015-04-07,127.29449999999999,,127.29449999999999
247,2015-04-08,84.82920833333333,,84.82920833333333
247,2015-04-09,334.10087500000003,,334.10087500000003
247,2015-04-10,249.48333333333335,,249.48333333333335
247,2015-04-11,280.41700000000003,,280.41700000000003
247,2015-04-12,680.2136666666667,,680.2136666666667
247,2015-04-13,561.0000000000001,,561.0000000000001
247,2015-04-14,444.83591666666666,,444.83591666666666
247,2015-04-15,677.40275,,677.40275
247,2015-04-16,520.0662916666666,,520.0662916666666
247,2015-04-17,419.84179166666667,,419.84179166666667
247,2015-04-18,692.3500416666667,,692.3500416666667
247,2015-04-19,624.3290833333334,,624.3290833333334
247,2015-04-20,351.781,,351.781
247,2015-04-21,416.6335000000001,,416.6335000000001
247,2015-04-22,193.365875,,193.365875
247,2015-04-23,84.89554166666667,,84.89554166666667
247,2015-04-24,373.90987500000006,,373.90987500000006
247,2015-04-25,721.415125,,721.415125
247,2015-04-26,255.85450000000003,,255.85450000000003
247,2015-04-27,214.12212499999998,,214.12212499999998
247,2015-04-28,641.0605416666667,,641.0605416666667
247,2015-04-29,625.2295416666667,,625.2295416666667
247,2015-04-30,292.703125,,292.703125
247,2015-05-01,593.0033333333334,,593.0033333333334
247,2015-05-02,691.6907916666665,,691.6907916666665
247,2015-05-03,566.7936666666668,,566.7936666666668
247,2015-05-04,509.30475,,509.30475
247,2015-05-05,394.91870833333337,,394.91870833333337
247,2015-05-06,489.1874583333333,,489.1874583333333
247,2015-05-07,244.11458333333334,,244.11458333333334
247,2015-05-08,556.2617083333333,,556.2617083333333
247,2015-05-09,593.3320833333333,,593.3320833333333
247,2015-05-10,337.8242083333333,,337.8242083333333
247,2015-05-11,60.77995833333333,,60.77995833333333
247,2015-05-12,528.49875,,528.49875
247,2015-05-13,210.62245833333336,,210.62245833333336
247,2015-05-14,704.9095833333334,,704.9095833333334
247,2015-05-15,353.2227500000001,,353.2227500000001
247,2015-05-16,248.04754166666666,,248.04754166666666
247,2015-05-17,459.09975000000003,,459.09975000000003
247,2015-05-18,434.66083333333336,,434.66083333333336
247,2015-05-19,580.9720833333333,,580.9720833333333
247,2015-05-20,558.36525,,558.36525
247,2015-05-21,574.2162500000001,,574.2162500000001
247,2015-05-22,0.0,,0.0
247,2015-05-23,132.90041666666667,,132.90041666666667
247,2015-05-24,621.9525833333331,,621.9525833333331
247,2015-05-25,511.00529166666655,,511.00529166666655
247,2015-05-26,424.80608333333333,,424.80608333333333
247,2015-05-27,539.09125,,539.09125
247,2015-05-28,669.4375416666668,,669.4375416666668
247,2015-05-29,319.3034166666667,,319.3034166666667
247,2015-05-30,484.2070833333334,,484.2070833333334
247,2015-05-31,119.39716666666668,,119.39716666666668
247,2015-06-01,206.50395833333334,,206.50395833333334
247,2015-06-02,558.5873333333333,,558.5873333333333
247,2015-06-03,699.8399583333334,,699.8399583333334
247,2015-06-04,375.8763333333334,,375.8763333333334
247,2015-06-05,488.65641666666653,,488.65641666666653
247,2015-06-06,670.0691249999999,,670.0691249999999
247,2015-06-07,687.5924999999999,,687.5924999999999
247,2015-06-08,263.6770833333333,,263.6770833333333
247,2015-06-09,271.0105416666667,,271.0105416666667
247,2015-06-10,609.9700833333333,,609.9700833333333
247,2015-06-11,636.6628333333334,,636.6628333333334
247,2015-06-12,513.195375,,513.195375
247,2015-06-13,491.53133333333335,,491.53133333333335
247,2015-06-14,362.87112499999995,,362.87112499999995
247,2015-06-15,457.83341666666666,,457.83341666666666
247,2015-06-16,414.66283333333337,,414.66283333333337
247,2015-06-17,473.53004166666665,,473.53004166666665
247,2015-06-18,452.6029583333334,,452.6029583333334
247,2015-06-19,350.86724999999996,,350.86724999999996
247,2015-06-20,374.0990000000001,,374.0990000000001
247,2015-06-21,449.01308333333344,,449.01308333333344
247,2015-06-22,657.4063749999999,,657.4063749999999
247,2015-06-23,499.5039583333334,,499.5039583333334
247,2015-06-24,704.7019166666665,,704.7019166666665
247,2015-06-25,487.2787916666667,,487.2787916666667
247,2015-06-26,652.629,,652.629
247,2015-06-27,76.87766666666668,,76.87766666666668
247,2015-06-28,232.6966666666667,,232.6966666666667
247,2015-06-29,621.9245416666666,,621.9245416666666
247,2015-06-30,381.239625,,381.239625
247,2015-07-01,362.7929583333334,,362.7929583333334
247,2015-07-02,440.4375833333334,,440.4375833333334
247,2015-07-03,681.0196249999999,,681.0196249999999
247,2015-07-04,557.7644166666666,,557.7644166666666
247,2015-07-05,635.9414166666667,,635.9414166666667
247,2015-07-06,489.3841666666667,,489.3841666666667
247,2015-07-07,549.5417083333334,,549.5417083333334
247,2015-07-08,374.231875,,374.231875
247,2015-07-09,40.27608333333333,,40.27608333333333
247,2015-07-10,347.59125,,347.59125
247,2015-07-11,651.2423333333334,,651.2423333333334
247,2015-07-12,568.2528333333333,,568.2528333333333
247,2015-07-13,641.6850416666667,,641.6850416666667
247,2015-07-14,296.2085416666667,,296.2085416666667
247,2015-07-15,428.2814166666667,,428.2814166666667
247,2015-07-16,701.3907083333332,,701.3907083333332
247,2015-07-17,280.8907916666667,,280.8907916666667
247,2015-07-18,569.3777083333333,,569.3777083333333
247,2015-07-19,569.0992083333334,,569.0992083333334
247,2015-07-20,634.4064583333334,,634.4064583333334
247,2015-07-21,536.7814166666667,,536.7814166666667
247,2015-07-22,690.906375,,690.906375
247,2015-07-23,576.61725,,576.61725
247,2015-07-24,691.9871249999998,,691.9871249999998
247,2015-07-25,474.7605833333334,,474.7605833333334
247,2015-07-26,635.5730833333333,,635.5730833333333
247,2015-07-27,645.3464583333333,,645.3464583333333
247,2015-07-28,648.5313333333334,,648.5313333333334
247,2015-07-29,602.4897083333334,,602.4897083333334
247,2015-07-30,612.994875,,612.994875
247,2015-07-31,624.7163333333334,,624.7163333333334
247,2015-08-01,595.1954166666667,,595.1954166666667
247,2015-08-02,680.2423333333334,,680.2423333333334
247,2015-08-03,477.4402083333334,,477.4402083333334
247,2015-08-04,556.211125,,556.211125
247,2015-08-05,476.60695833333335,,476.60695833333335
247,2015-08-06,559.6069166666667,,559.6069166666667
247,2015-08-07,631.195375,,631.195375
247,2015-08-08,466.9689583333334,,466.9689583333334
247,2015-08-09,671.4636666666667,,671.4636666666667
247,2015-08-10,420.8204166666667,,420.8204166666667
247,2015-08-11,376.1016666666667,,376.1016666666667
247,2015-08-12,380.59904166666666,,380.59904166666666
247,2015-08-13,647.3047916666667,,647.3047916666667
247,2015-08-14,476.0262083333334,,476.0262083333334
247,2015-08-15,446.02883333333335,,446.02883333333335
247,2015-08-16,574.4949583333333,,574.4949583333333
247,2015-08-17,646.8699166666667,,646.8699166666667
247,2015-08-18,317.70575,,317.70575
247,2015-08-19,505.1589583333334,,505.1589583333334
247,2015-08-20,272.2475,,272.2475
247,2015-08-21,601.45325,,601.45325
247,2015-08-22,609.4298333333334,,609.4298333333334
247,2015-08-23,619.7683333333333,,619.7683333333333
247,2015-08-24,479.9636666666667,,479.9636666666667
247,2015-08-25,313.005375,,313.005375
247,2015-08-26,325.01575,,325.01575
247,2015-08-27,292.6172916666667,,292.6172916666667
247,2015-08-28,481.2839166666667,,481.2839166666667
247,2015-08-29,496.14858333333336,,496.14858333333336
247,2015-08-30,413.3595416666667,,413.3595416666667
247,2015-08-31,531.4922916666667,,531.4922916666667
247,2015-09-01,567.2449583333333,,567.2449583333333
247,2015-09-02,488.94279166666666,,488.94279166666666
247,2015-09-03,492.8933333333334,,492.8933333333334
247,2015-09-04,537.29175,,537.29175
247,2015-09-05,550.3516666666667,,550.3516666666667
247,2015-09-06,537.6902083333333,,537.6902083333333
247,2015-09-07,560.6147083333334,,560.6147083333334
247,2015-09-08,485.40112500000004,,485.40112500000004
247,2015-09-09,354.50533333333334,,354.50533333333334
247,2015-09-10,414.388125,,414.388125
247,2015-09-11,592.9557916666666,,592.9557916666666
247,2015-09-12,54.83870833333335,,54.83870833333335
247,2015-09-13,157.0209166666667,,157.0209166666667
247,2015-09-14,580.3125833333334,,580.3125833333334
247,2015-09-15,637.5105,,637.5105
247,2015-09-16,596.2683333333333,,596.2683333333333
247,2015-09-17,599.6772083333334,,599.6772083333334
247,2015-09-18,570.5339583333333,,570.5339583333333
247,2015-09-19,222.34383333333335,,222.34383333333335
247,2015-09-20,577.328125,,577.328125
247,2015-09-21,546.0834583333334,,546.0834583333334
247,2015-09-22,387.74487500000004,,387.74487500000004
247,2015-09-23,560.2110416666667,,560.2110416666667
247,2015-09-24,525.3100000000001,,525.3100000000001
247,2015-09-25,433.1694166666667,,433.1694166666667
247,2015-09-26,438.32820833333335,,438.32820833333335
247,2015-09-27,476.2761666666667,,476.2761666666667
247,2015-09-28,87.494875,,87.494875
247,2015-09-29,81.84125,,81.84125
247,2015-09-30,54.00270833333334,,54.00270833333334
247,2015-10-01,418.89858333333336,,418.89858333333336
247,2015-10-02,231.77358333333336,,231.77358333333336
247,2015-10-03,83.47404166666666,,83.47404166666666
247,2015-10-04,500.0704166666667,,500.0704166666667
247,2015-10-05,462.07050000000004,,462.07050000000004
247,2015-10-06,87.63554166666667,,87.63554166666667
247,2015-10-07,421.8464166666667,,421.8464166666667
247,2015-10-08,498.19279166666666,,498.19279166666666
247,2015-10-09,95.52083333333333,,95.52083333333333
247,2015-10-10,460.0416666666667,,460.0416666666667
247,2015-10-11,606.4270833333334,,606.4270833333334
247,2015-10-12,599.9895833333334,,599.9895833333334
247,2015-10-13,239.59375,,239.59375
247,2015-10-14,256.9427083333333,,256.9427083333333
247,2015-10-15,519.21875,,519.21875
247,2015-10-16,423.5677083333333,,423.5677083333333
247,2015-10-17,259.109375,,259.109375
247,2015-10-18,245.36979166666666,,245.36979166666666
247,2015-10-19,579.6875,,579.6875
247,2015-10-20,358.015625,,358.015625
247,2015-10-21,238.953125,,238.953125
247,2015-10-22,168.63541666666666,,168.63541666666666
247,2015-10-23,590.296875,,590.296875
247,2015-10-24,63.734375,,63.734375
247,2015-10-25,189.265625,,189.265625
247,2015-10-26,468.109375,,468.109375
247,2015-10-27,428.78125,,428.78125
247,2015-10-28,106.44270833333333,,106.44270833333333
247,2015-10-29,290.8645833333333,,290.8645833333333
247,2015-10-30,330.3125,,330.3125
247,2015-10-31,208.28645833333334,,208.28645833333334
247,2015-11-01,417.6197916666667,,417.6197916666667
247,2015-11-02,528.7604166666666,,528.7604166666666
247,2015-11-03,521.3072916666666,,521.3072916666666
247,2015-11-04,525.1041666666666,,525.1041666666666
247,2015-11-05,241.42708333333334,,241.42708333333334
247,2015-11-06,133.453125,,133.453125
247,2015-11-07,109.11458333333333,,109.11458333333333
247,2015-11-08,435.9166666666667,,435.9166666666667
247,2015-11-09,521.2604166666666,,521.2604166666666
247,2015-11-10,35.03125,,35.03125
247,2015-11-11,50.041666666666664,,50.041666666666664
247,2015-11-12,110.125,,110.125
247,2015-11-13,88.44791666666667,,88.44791666666667
247,2015-11-14,111.04166666666667,,111.04166666666667
247,2015-11-15,473.9166666666667,,473.9166666666667
247,2015-11-16,469.9114583333333,,469.9114583333333
247,2015-11-17,354.0833333333333,,354.0833333333333
247,2015-11-18,250.30729166666666,,250.30729166666666
247,2015-11-19,149.16145833333334,,149.16145833333334
247,2015-11-20,466.0260416666667,,466.0260416666667
247,2015-11-21,141.23958333333334,,141.23958333333334
247,2015-11-22,136.90625,,136.90625
247,2015-11-23,363.1145833333333,,363.1145833333333
247,2015-11-24,25.953125,,25.953125
247,2015-11-25,228.44791666666666,,228.44791666666666
247,2015-11-26,112.84375,,112.84375
247,2015-11-27,53.885416666666664,,53.885416666666664
247,2015-11-28,22.302083333333332,,22.302083333333332
247,2015-11-29,135.00520833333334,,135.00520833333334
247,2015-11-30,229.078125,,229.078125
247,2015-12-01,20.848958333333332,,20.848958333333332
247,2015-12-02,8.880208333333334,,8.880208333333334
247,2015-12-03,98.38020833333333,,98.38020833333333
247,2015-12-04,28.838541666666668,,28.838541666666668
247,2015-12-05,249.07291666666666,,249.07291666666666
247,2015-12-06,281.171875,,281.171875
247,2015-12-07,311.078125,,311.078125
247,2015-12-08,111.484375,,111.484375
247,2015-12-09,349.9270833333333,,349.9270833333333
247,2015-12-10,175.875,,175.875
247,2015-12-11,365.140625,,365.140625
247,2015-12-12,65.08854166666667,,65.08854166666667
247,2015-12-13,80.82291666666667,,80.82291666666667
247,2015-12-14,188.46354166666666,,188.46354166666666
247,2015-12-15,33.963541666666664,,33.963541666666664
247,2015-12-16,60.109375,,60.109375
247,2015-12-17,15.328125,,15.328125
247,2015-12-18,60.916666666666664,,60.916666666666664
247,2015-12-19,3.3489583333333335,,3.3489583333333335
247,2015-12-20,15.348958333333334,,15.348958333333334
247,2015-12-21,101.78645833333333,,101.78645833333333
247,2015-12-22,107.69791666666667,,107.69791666666667
247,2015-12-23,45.661458333333336,,45.661458333333336
247,2015-12-24,319.6666666666667,,319.6666666666667
247,2015-12-25,157.390625,,157.390625
247,2015-12-26,58.526041666666664,,58.526041666666664
247,2015-12-27,25.135416666666668,,25.135416666666668
247,2015-12-28,48.916666666666664,,48.916666666666664
247,2015-12-29,38.619791666666664,,38.619791666666664
247,2015-12-30,48.942708333333336,,48.942708333333336
247,2015-12-31,21.963541666666668,,21.963541666666668
247,2016-01-01,101.39583333333333,,101.39583333333333
247,2016-01-02,4.401041666666667,,4.401041666666667
247,2016-01-03,53.270833333333336,,53.270833333333336
247,2016-01-04,36.364583333333336,,36.364583333333336
247,2016-01-05,246.671875,,246.671875
247,2016-01-06,396.2760416666667,,396.2760416666667
247,2016-01-07,418.9375,,418.9375
247,2016-01-08,146.25520833333334,,146.25520833333334
247,2016-01-09,32.880208333333336,,32.880208333333336
247,2016-01-10,79.46875,,79.46875
247,2016-01-11,42.192708333333336,,42.192708333333336
247,2016-01-12,20.765625,,20.765625
247,2016-01-13,2.0,,2.0
247,2016-01-14,0.015625,,0.015625
247,2016-01-15,19.427083333333332,,19.427083333333332
247,2016-01-16,65.55208333333333,,65.55208333333333
247,2016-01-17,106.40625,,106.40625
247,2016-01-18,4.421875,,4.421875
247,2016-01-19,2.921875,,2.921875
247,2016-01-20,5.697916666666667,,5.697916666666667
247,2016-01-21,3.6875,,3.6875
247,2016-01-22,5.229166666666667,,5.229166666666667
247,2016-01-23,6.307291666666667,,6.307291666666667
247,2016-01-24,12.71875,,12.71875
247,2016-01-25,54.359375,,54.359375
247,2016-01-26,122.453125,,122.453125
247,2016-01-27,58.067708333333336,,58.067708333333336
247,2016-01-28,259.7708333333333,,259.7708333333333
247,2016-01-29,22.510416666666668,,22.510416666666668
247,2016-01-30,346.0104166666667,,346.0104166666667
247,2016-01-31,154.11458333333334,,154.11458333333334
247,2016-02-01,198.86979166666666,,198.86979166666666
247,2016-02-02,483.3229166666667,,483.3229166666667
247,2016-02-03,107.80729166666667,,107.80729166666667
247,2016-02-04,123.17708333333333,,123.17708333333333
247,2016-02-05,187.75520833333334,,187.75520833333334
247,2016-02-06,390.1822916666667,,390.1822916666667
247,2016-02-07,514.3541666666666,,514.3541666666666
247,2016-02-08,209.70833333333334,,209.70833333333334
247,2016-02-09,56.614583333333336,,56.614583333333336
247,2016-02-10,179.375,,179.375
247,2016-02-11,105.4375,,105.4375
247,2016-02-12,222.390625,,222.390625
247,2016-02-13,47.963541666666664,,47.963541666666664
247,2016-02-14,354.0416666666667,,354.0416666666667
247,2016-02-15,75.33854166666667,,75.33854166666667
247,2016-02-16,0.0,,0.0
247,2016-02-17,0.11979166666666667,,0.11979166666666667
247,2016-02-18,1.0364583333333333,,1.0364583333333333
247,2016-02-19,36.5,,36.5
247,2016-02-20,490.3385416666667,,490.3385416666667
247,2016-02-21,137.91145833333334,,137.91145833333334
247,2016-02-22,577.84375,,577.84375
247,2016-02-23,478.3958333333333,,478.3958333333333
247,2016-02-24,64.27083333333333,,64.27083333333333
247,2016-02-25,93.61979166666667,,93.61979166666667
247,2016-02-26,489.1510416666667,,489.1510416666667
247,2016-02-27,349.7291666666667,,349.7291666666667
247,2016-02-28,580.4010416666666,,580.4010416666666
247,2016-02-29,241.81770833333334,,241.81770833333334
247,2016-03-01,332.6666666666667,,332.6666666666667
247,2016-03-02,340.8541666666667,,340.8541666666667
247,2016-03-03,90.86979166666667,,90.86979166666667
247,2016-03-04,157.015625,,157.015625
247,2016-03-05,187.3125,,187.3125
247,2016-03-06,521.953125,,521.953125
247,2016-03-07,570.9479166666666,,570.9479166666666
247,2016-03-08,438.4947916666667,,438.4947916666667
247,2016-03-09,466.7291666666667,,466.7291666666667
247,2016-03-10,92.78125,,92.78125
247,2016-03-11,183.36458333333334,,183.36458333333334
247,2016-03-12,593.171875,,593.171875
247,2016-03-13,188.74479166666666,,188.74479166666666
247,2016-03-14,155.21875,,155.21875
247,2016-03-15,95.91666666666667,,95.91666666666667
247,2016-03-16,153.21354166666666,,153.21354166666666
247,2016-03-17,420.59375,,420.59375
247,2016-03-18,234.140625,,234.140625
247,2016-03-19,671.1875,,671.1875
247,2016-03-20,572.546875,,572.546875
247,2016-03-21,352.0989583333333,,352.0989583333333
247,2016-03-22,336.90625,,336.90625
247,2016-03-23,91.63020833333333,,91.63020833333333
247,2016-03-24,364.5520833333333,,364.5520833333333
247,2016-03-25,124.04166666666667,,124.04166666666667
247,2016-03-26,650.34375,,650.34375
247,2016-03-27,666.3854166666666,,666.3854166666666
247,2016-03-28,210.390625,,210.390625
247,2016-03-29,702.8697916666666,,702.8697916666666
247,2016-03-30,652.6822916666666,,652.6822916666666
247,2016-03-31,147.66145833333334,,147.66145833333334
247,2016-04-01,477.6979166666667,,477.6979166666667
247,2016-04-02,391.7916666666667,,391.7916666666667
247,2016-04-03,369.4479166666667,,369.4479166666667
247,2016-04-04,0.375,,0.375
247,2016-04-05,57.484375,,57.484375
247,2016-04-06,229.27083333333334,,229.27083333333334
247,2016-04-07,308.9791666666667,,308.9791666666667
247,2016-04-08,330.421875,,330.421875
247,2016-04-09,271.609375,,271.609375
247,2016-04-10,361.6302083333333,,361.6302083333333
247,2016-04-11,62.010416666666664,,62.010416666666664
247,2016-04-12,315.6979166666667,,315.6979166666667
247,2016-04-13,578.4479166666666,,578.4479166666666
247,2016-04-14,727.1666666666666,,727.1666666666666
247,2016-04-15,717.96875,,717.96875
247,2016-04-16,709.796875,,709.796875
247,2016-04-17,709.921875,,709.921875
247,2016-04-18,689.0833333333334,,689.0833333333334
247,2016-04-19,521.4895833333334,,521.4895833333334
247,2016-04-20,729.2760416666666,,729.2760416666666
247,2016-04-21,391.546875,,391.546875
247,2016-04-22,228.703125,,228.703125
247,2016-04-23,487.2395833333333,,487.2395833333333
247,2016-04-24,603.8958333333334,,603.8958333333334
247,2016-04-25,443.703125,,443.703125
247,2016-04-26,124.66145833333333,,124.66145833333333
247,2016-04-27,730.0208333333334,,730.0208333333334
247,2016-04-28,401.703125,,401.703125
247,2016-04-29,170.0625,,170.0625
247,2016-04-30,310.5208333333333,,310.5208333333333
247,2016-05-01,178.80729166666666,,178.80729166666666
247,2016-05-02,192.71354166666666,,192.71354166666666
247,2016-05-03,389.0,,389.0
247,2016-05-04,428.5364583333333,,428.5364583333333
247,2016-05-05,359.6510416666667,,359.6510416666667
247,2016-05-06,448.3177083333333,,448.3177083333333
247,2016-05-07,548.6822916666666,,548.6822916666666
247,2016-05-08,569.296875,,569.296875
247,2016-05-09,726.2291666666666,,726.2291666666666
247,2016-05-10,550.0989583333334,,550.0989583333334
247,2016-05-11,656.734375,,656.734375
247,2016-05-12,591.6302083333334,,591.6302083333334
247,2016-05-13,501.5729166666667,,501.5729166666667
247,2016-05-14,290.1666666666667,,290.1666666666667
247,2016-05-15,426.1927083333333,,426.1927083333333
247,2016-05-16,688.625,,688.625
247,2016-05-17,283.6822916666667,,283.6822916666667
247,2016-05-18,605.25,,605.25
247,2016-05-19,435.5052083333333,,435.5052083333333
247,2016-05-20,698.953125,,698.953125
247,2016-05-21,259.2083333333333,,259.2083333333333
247,2016-05-22,450.3489583333333,,450.3489583333333
247,2016-05-23,716.6510416666666,,716.6510416666666
247,2016-05-24,720.5208333333334,,720.5208333333334
247,2016-05-25,647.6354166666666,,647.6354166666666
247,2016-05-26,419.9375,,419.9375
247,2016-05-27,617.2552083333334,,617.2552083333334
247,2016-05-28,511.4739583333333,,511.4739583333333
247,2016-05-29,440.3333333333333,,440.3333333333333
247,2016-05-30,673.5885416666666,,673.5885416666666
247,2016-05-31,637.5885416666666,,637.5885416666666
247,2016-06-01,698.1197916666666,,698.1197916666666
247,2016-06-02,249.97395833333334,,249.97395833333334
247,2016-06-03,647.6354166666666,,647.6354166666666
247,2016-06-04,587.5260416666666,,587.5260416666666
247,2016-06-05,232.35416666666666,,232.35416666666666
247,2016-06-06,710.03125,,710.03125
247,2016-06-07,491.4479166666667,,491.4479166666667
247,2016-06-08,356.4427083333333,,356.4427083333333
247,2016-06-09,665.8697916666666,,665.8697916666666
247,2016-06-10,712.9270833333334,,712.9270833333334
247,2016-06-11,565.4791666666666,,565.4791666666666
247,2016-06-12,534.8125,,534.8125
247,2016-06-13,377.8385416666667,,377.8385416666667
247,2016-06-14,738.2291666666666,,738.2291666666666
247,2016-06-15,601.328125,,601.328125
247,2016-06-16,300.4791666666667,,300.4791666666667
247,2016-06-17,724.3697916666666,,724.3697916666666
247,2016-06-18,671.6302083333334,,671.6302083333334
247,2016-06-19,668.09375,,668.09375
247,2016-06-20,604.3333333333334,,604.3333333333334
247,2016-06-21,695.0885416666666,,695.0885416666666
247,2016-06-22,704.1770833333334,,704.1770833333334
247,2016-06-23,419.6979166666667,,419.6979166666667
247,2016-06-24,732.0416666666666,,732.0416666666666
247,2016-06-25,635.3125,,635.3125
247,2016-06-26,621.765625,,621.765625
247,2016-06-27,608.4375,,608.4375
247,2016-06-28,582.6822916666666,,582.6822916666666
247,2016-06-29,424.953125,,424.953125
247,2016-06-30,674.4010416666666,,674.4010416666666
247,2016-07-01,424.546875,,424.546875
247,2016-07-02,645.8385416666666,,645.8385416666666
247,2016-07-03,636.5520833333334,,636.5520833333334
247,2016-07-04,656.8125,,656.8125
247,2016-07-05,482.328125,,482.328125
247,2016-07-06,587.328125,,587.328125
247,2016-07-07,527.953125,,527.953125
247,2016-07-08,372.125,,372.125
247,2016-07-09,470.5729166666667,,470.5729166666667
247,2016-07-10,554.8333333333334,,554.8333333333334
247,2016-07-11,617.1354166666666,,617.1354166666666